Location: Oak Glen
(34.0495°N, 116.9470°E)
Time: 16:30:11
(UTC-08:00)

Envisat - Pass Details

Date: 10 October 2017
Orbit: 764 x 766 km, 98.2° (Epoch: 09 December)

Event Time Altitude Azimuth Distance (km) Brightness Sun altitude
Exits shadow 04:45:56 31° 17° (NNE) 1,314 4.1 -25.9°
Drops below altitude 10° 04:48:46 10° 359° (N) 2,306 5.6 -26.4°
Sets 04:51:07 0° 355° (N) 3,236 6.4 -26.9°
